LEMUR-2-MMOLO (55038 NORAD) Tracking and Keplerian Element Data

This shows tracking and keplerian element data for the satellite.

Feedback or suggestion? Click here.




ElementValue
Catalog55038
NameLEMUR-2-MMOLO
Epoch Orbit1250
Epoch Day85.15666256
Epoch Year2023
RAAN146.2136
Inclination97.4925
Eccentricity0.0013739
Argument of Perigee293.1036
Mean Anonmoly66.8749
Mean Motion15.17501541
Decay Rate0.00030615
L11 55038U 23001AF 23085.15666256 .00030615 00000+0 15220-2 0 9998
L22 55038 97.4925 146.2136 0013739 293.1036 66.8749 15.17501541 12507



Live tracking and technical data element details for LEMUR-2-MMOLO (NORAD 55038). LEMUR-2-MMOLO can be tracked NOW for your location showing map with azimuth and elevation plus other details from your city location.







IsCatalogInMostPopularTable: catalog: 55038, numindb: 9
Update: records affected: 1



GetName: 55038 LEMUR-2-MMOLO

Hit Count: updated at: Mon, 27 Mar 2023 07:41:55 GMT